Regional Weather Roundup
Issued by NWS

Home | Current Version | Previous Version | Graphics & Text | Print | Product List | Glossary On
Versions: 1 2 3 4 5 6 7 8 9 10 11 12 13 14 15 16 17 18 19 20 21 22 23 24 25 26 27 28 29 30 31 32 33 34 35 36 37 38 39 40 41 42 43 44 45 46 47 48 49 50
471
ASUS44 KJAN 190410
RWRMS

MISSISSIPPI HOURLY WEATHER ROUNDUP
NATIONAL WEATHER SERVICE JACKSON MS
1100 PM CDT SAT APR 18 2015

NOTE: "FAIR: INDICATES FEW OR NO CLOUDS BELOW 12,000 FEET WITH NO
SIGNIFICANT WEATHER AND/OR OBSTRUCTIONS TO VISIBILITY.

MSZ001>002-007>008-010>013-018>021-025>028-034>036-190500-
NORTHWEST MISSISSIPPI

CITY           SKY/WX    TMP DP  RH WIND       PRES   REMARKS
CLARKSDALE     CLOUDY    64  64 100 E8        29.80F
CLEVELAND      CLOUDY    66  66 100 E8        29.76F
GREENWOOD      LGT RAIN  66  63  90 SE9       29.77F
GREENVILLE     CLOUDY    68  65  90 SE10      29.76F
OLIVE BRANCH   MOCLDY    64  64 100 CALM      29.82F
OXFORD         MOCLDY    63  63 100 SE8       29.83F FOG
TUNICA         CLOUDY    64  63  94 E13       29.80F
$$

MSZ003>006-009-014>017-022>024-029>033-037>039-190500-
NORTHEAST MISSISSIPPI

CITY           SKY/WX    TMP DP  RH WIND       PRES   REMARKS
COLUMBUS AFB   CLOUDY    64  64 100 SE2       29.83F FOG
CORINTH        LGT RAIN  66  63  88 SE6       29.82F
GOLDN TRIANGLE CLOUDY    66  63  88 SE9       29.83F
STARKVILLE     RAIN      63  63 100 E3        29.83F
TUPELO         CLOUDY    66  63  90 S7        29.83F
$$

MSZ040-058-190500-
CENTRAL MISSISSIPPI

CITY           SKY/WX    TMP DP  RH WIND       PRES   REMARKS
JACKSON INTL   HVY RAIN  69  67  93 SW8       29.77F FOG
JACKSON HAWKNS RAIN      67  66  97 NW6       29.79S FOG
MERIDIAN KEY   RAIN      68  67  96 S5        29.81F FOG
MERIDIAN NAS   LGT RAIN  67  65  93 SE6       29.81F FOG
VICKSBURG      CLOUDY    67  65  93 CALM      29.78F
$$

MSZ059>079-190500-
SOUTH MISSISSIPPI

CITY           SKY/WX    TMP DP  RH WIND       PRES   REMARKS
BROOKHAVEN       N/A     70  70 100 S6        29.81F
HATTIESBURG    CLOUDY    72  68  87 S9        29.81F
MCCOMB         MOCLDY    70  69  97 S8        29.80S
NATCHEZ        CLOUDY    66  64  94 CALM      29.79S
PINE BELT      CLOUDY    70 N/A N/A S7        29.82F
$$

MSZ080>082-190500-
COASTAL MISSISSIPPI

CITY           SKY/WX    TMP DP  RH WIND       PRES   REMARKS
BILOXI         CLOUDY    73  71  96 S13       29.81F
PASCAGOULA     CLOUDY    71  69  93 S7        29.84F
GULFPORT       CLOUDY    72  69  90 S14       29.80F
$$



USA.gov is the U.S. government's official web portal to all federal, state and local government web resources and services.